Crescent City, CA

6:29 AM PDT on September 27, 2016 (GMT -0700)
McNamara

Weather History for KCEC - March, 2014

Change the Weather History Date:

Saturday, March 15, 2014

  Actual Average Record
Temperature  
Mean Temperature 49 °F 48 °F  
Max Temperature 55 °F 55 °F 64 °F (1972)
Min Temperature 42 °F 42 °F 29 °F (2002)
Degree Days  
Heating Degree Days 16 16  
Month to date heating degree days 182 254  
Since 1 July heating degree days 3348 3427  
Cooling Degree Days 0 0  
Month to date cooling degree days 0 0  
Year to date cooling degree days 0 0  
Moisture  
Dew Point 47 °F    
Average Humidity 89    
Maximum Humidity 100    
Minimum Humidity 77    
Precipitation  
Precipitation 0.00 in 0.25 in 2.47 in (1949)
Month to date precipitation 3.56 3.51  
Year to date precipitation 15.20 22.78  
Since 1 July precipitation 24.19  
Snow  
Snow 0.00 in - - ()
Month to date snowfall 0.0  
Since 1 July snowfall 0.0  
Snow Depth 0.00 in    
Sea Level Pressure  
Sea Level Pressure 30.35 in    
Wind  
Wind Speed 3 mph (SW)    
Max Wind Speed 8 mph    
Max Gust Speed 10 mph    
Visibility 4 miles    
Events Fog    
T = Trace of Precipitation, MM = Missing Value Source: NWS Daily Summary

Daily Weather History Graph

Daily Weather History Graph

Search for Another Location

Airport or City:

Trip Planner

Search our weather history database for the weather conditions in past years. The results will help you decide how hot, cold, wet, or windy it might be!

Date:

Astronomy

Mar. 15, 2014 Rise Set
Actual Time 7:28 AM PDT 7:23 PM PDT
Civil Twilight 7:00 AM PDT 7:51 PM PDT
Nautical Twilight 6:28 AM PDT 8:23 PM PDT
Astronomical Twilight 5:55 AM PDT 8:56 PM PDT
Moon 6:48 PM PDT (3/15) 6:44 AM PDT (3/15)
Length of Visible Light 12h 50m
Length of Day
11h 55m
Waxing Gibbous, 99% of the Moon is Illuminated
Mar 15
Waxing Gibbous
Mar 16
Full
Mar 23
Last Quarter
Mar 30
New
Apr 7
First Quarter

Hourly Weather History & Observations

Time (PDT) Temp. Windchill Dew Point Humidity Pressure Visibility Wind Dir Wind Speed Gust Speed Precip Events Conditions
12:11 AM 50.0 °F - 50.0 °F 100% 30.32 in 1.5 mi Calm Calm - N/A   Overcast
12:15 AM 50.0 °F - 50.0 °F 100% 30.32 in 3.0 mi Calm Calm - N/A   Overcast
12:27 AM 50.0 °F - 50.0 °F 100% 30.32 in 1.5 mi SW 3.5 mph - N/A   Overcast
12:30 AM 50.0 °F - 48.9 °F 96% 30.32 in 0.8 mi WSW 3.5 mph - N/A   Overcast
12:56 AM 48.9 °F - 48.9 °F 100% 30.32 in 0.2 mi WSW 3.5 mph - N/A Fog Fog
1:56 AM 48.9 °F - 48.9 °F 100% 30.33 in 0.2 mi Calm Calm - N/A Fog Fog
2:29 AM 48.9 °F - 48.0 °F 97% 30.32 in 1.5 mi East 5.8 mph - N/A   Overcast
2:36 AM 48.0 °F - 46.9 °F 96% 30.33 in 3.0 mi East 3.5 mph - N/A   Overcast
2:56 AM 48.0 °F - 48.0 °F 100% 30.33 in 4.0 mi Calm Calm - N/A   Overcast
3:01 AM 48.0 °F - 48.0 °F 100% 30.33 in 1.8 mi Calm Calm - N/A   Overcast
3:10 AM 46.9 °F - 46.9 °F 100% 30.33 in 1.0 mi Calm Calm - N/A   Overcast
3:21 AM 46.9 °F - 46.9 °F 100% 30.33 in 2.0 mi Calm Calm - N/A   Overcast
3:28 AM 46.9 °F - 46.9 °F 100% 30.33 in 1.2 mi Calm Calm - N/A   Overcast
3:36 AM 46.9 °F - 46.9 °F 100% 30.32 in 0.5 mi Calm Calm - N/A Fog Fog
3:56 AM 46.0 °F - 45.0 °F 96% 30.32 in 0.5 mi Calm Calm - N/A Fog Fog
4:56 AM 46.0 °F - 45.0 °F 96% 30.32 in 0.5 mi Calm Calm - N/A Fog Fog
5:25 AM 45.0 °F 43.5 °F 44.1 °F 97% 30.31 in 2.0 mi ENE 3.5 mph - N/A   Mostly Cloudy
5:30 AM 45.0 °F - 44.1 °F 97% 30.31 in 10.0 mi Calm Calm - N/A   Scattered Clouds
5:42 AM 43.0 °F - 43.0 °F 100% 30.31 in 9.0 mi Calm Calm - N/A   Mostly Cloudy
5:56 AM 43.0 °F 41.3 °F 42.1 °F 97% 30.32 in 8.0 mi NNW 3.5 mph - N/A   Mostly Cloudy
6:25 AM 43.0 °F - 43.0 °F 100% 30.33 in 2.5 mi Calm Calm - N/A   Overcast
6:33 AM 44.1 °F - 44.1 °F 100% 30.33 in 4.0 mi Calm Calm - N/A   Overcast
6:56 AM 42.1 °F - 42.1 °F 100% 30.34 in 6.0 mi Calm Calm - N/A   Partly Cloudy
7:07 AM 43.0 °F 39.5 °F 42.1 °F 97% 30.33 in 1.5 mi ENE 5.8 mph - N/A   Scattered Clouds
7:09 AM 44.1 °F 41.5 °F 42.1 °F 93% 30.33 in 0.8 mi ENE 4.6 mph - N/A   Mist
7:56 AM 43.0 °F 41.3 °F 43.0 °F 100% 30.34 in 0.2 mi NE 3.5 mph - N/A Fog Fog
8:15 AM 44.1 °F 42.5 °F 44.1 °F 100% 30.33 in 2.0 mi ENE 3.5 mph - N/A   Mostly Cloudy
8:20 AM 45.0 °F - 45.0 °F 100% 30.34 in 9.0 mi Calm Calm - N/A   Scattered Clouds
8:56 AM 46.0 °F - 46.0 °F 100% 30.36 in 5.0 mi Calm Calm - N/A   Partly Cloudy
9:56 AM 50.0 °F - 45.0 °F 83% 30.37 in 6.0 mi WSW 5.8 mph - N/A   Haze
10:56 AM 53.1 °F - 48.0 °F 83% 30.38 in 9.0 mi Calm Calm - N/A   Clear
11:15 AM 52.0 °F - 46.9 °F 83% 30.38 in 8.0 mi WSW 4.6 mph - N/A   Scattered Clouds
11:23 AM 53.1 °F - 48.0 °F 83% 30.38 in 8.0 mi WNW 5.8 mph - N/A   Mostly Cloudy
11:56 AM 52.0 °F - 48.0 °F 86% 30.39 in 8.0 mi West 4.6 mph - N/A   Mostly Cloudy
12:39 PM 54.0 °F - 48.9 °F 83% 30.39 in 8.0 mi South 5.8 mph - N/A   Partly Cloudy
12:56 PM 53.1 °F - 48.9 °F 86% 30.40 in 8.0 mi Variable 5.8 mph - N/A   Partly Cloudy
1:18 PM 53.1 °F - 48.9 °F 86% 30.39 in 9.0 mi SSW 6.9 mph - N/A   Mostly Cloudy
1:39 PM 52.0 °F - 48.0 °F 86% 30.39 in 8.0 mi South 6.9 mph - N/A   Mostly Cloudy
1:56 PM 52.0 °F - 48.0 °F 86% 30.39 in 9.0 mi SW 6.9 mph - N/A   Mostly Cloudy
2:38 PM 53.1 °F - 48.9 °F 86% 30.39 in 10.0 mi WSW 6.9 mph - N/A   Scattered Clouds
2:56 PM 52.0 °F - 48.0 °F 86% 30.40 in 10.0 mi West 5.8 mph - N/A   Mostly Cloudy
3:07 PM 53.1 °F - 48.0 °F 83% 30.39 in 10.0 mi West 5.8 mph - N/A   Scattered Clouds
3:36 PM 52.0 °F - 48.9 °F 89% 30.39 in 7.0 mi Calm Calm - N/A   Mostly Cloudy
3:47 PM 53.1 °F - 48.9 °F 86% 30.38 in 10.0 mi West 3.5 mph - N/A   Scattered Clouds
3:56 PM 55.0 °F - 48.9 °F 80% 30.38 in 10.0 mi West 4.6 mph - N/A   Partly Cloudy
4:56 PM 53.1 °F - 48.9 °F 86% 30.37 in 10.0 mi SW 5.8 mph - N/A   Clear
5:56 PM 53.1 °F - 48.9 °F 86% 30.36 in 8.0 mi SW 3.5 mph - N/A   Clear
6:25 PM 51.1 °F - 48.9 °F 92% 30.36 in 4.0 mi South 5.8 mph - N/A   Partly Cloudy
6:56 PM 50.0 °F - 48.0 °F 93% 30.35 in 3.0 mi South 5.8 mph - N/A   Scattered Clouds
7:01 PM 50.0 °F - 48.0 °F 93% 30.35 in 1.8 mi South 5.8 mph - N/A   Mostly Cloudy
7:07 PM 50.0 °F - 48.0 °F 93% 30.35 in 0.8 mi South 4.6 mph - N/A   Mist
7:18 PM 48.9 °F - 48.0 °F 97% 30.35 in 1.5 mi South 4.6 mph - N/A   Overcast
7:23 PM 48.9 °F - 48.0 °F 97% 30.34 in 0.8 mi SSW 4.6 mph - N/A   Mist
7:46 PM 48.0 °F - 46.9 °F 96% 30.35 in 1.5 mi Calm Calm - N/A   Overcast
7:56 PM 48.0 °F - 48.0 °F 100% 30.35 in 1.0 mi Calm Calm - N/A   Mist
8:04 PM 48.9 °F - 48.0 °F 97% 30.35 in 0.8 mi Calm Calm - N/A   Mist
8:56 PM 50.0 °F - 48.9 °F 96% 30.38 in 0.5 mi NE 3.5 mph - N/A Fog Fog
9:56 PM 50.0 °F - 48.9 °F 96% 30.39 in 0.5 mi NNE 4.6 mph - N/A Fog Fog
10:56 PM 48.9 °F - 48.9 °F 100% 30.40 in 0.2 mi Calm Calm - N/A Fog Fog
11:56 PM 46.9 °F - 46.0 °F 97% 30.41 in 0.2 mi Calm Calm - N/A Fog Fog